Regional Weather Roundup
Issued by NWS

Home | Current Version | Previous Version | Graphics & Text | Print | Product List | Glossary Off
Versions: 1 2 3 4 5 6 7 8 9 10 11 12 13 14 15 16 17 18 19 20 21 22 23 24 25 26 27 28 29 30 31 32 33 34 35 36 37 38 39 40 41 42 43 44 45 46 47 48 49 50

801
ASUS43 KLSX 211607
RWRMO

WEATHER SUMMARY FOR MISSOURI
NATIONAL WEATHER SERVICE SPRINGFIELD MO
1100 AM CDT MON AUG 21 2017

NOTE: "FAIR" INDICATES FEW OR NO CLOUDS BELOW 12,000 FEET WITH NO
       SIGNIFICANT WEATHER AND/OR OBSTRUCTIONS TO VISIBILITY.
       CURRENT SKY AND/OR WEATHER CONDITIONS ARE NOT AVAILABLE FOR
       CHILLICOTHE AND FARMINGTON.

MOZ001>031-035>038-043-044-053-054-211700-
...NORTHERN AND WESTERN MISSOURI...

CITY           SKY/WX    TMP DP  RH WIND       PRES   REMARKS
KANSAS CTY INT CLOUDY    76  69  79 S15       30.09R
KANSAS C DTWN  LGT RAIN  74  69  85 SE12G22   30.08S
LEE`S SUMMIT   TSTM      69  68  96 N6        30.09F FOG
ST JOSEPH      LGT RAIN  80  76  87 E5        30.06R
CHILLICOTHE      N/A     79  71  76 VRB3      30.10R
KIRKSVILLE     PTSUNNY   75  71  87 E10       30.11S

$$
MOZ066>068-077>081-088>096-101>105-211700-
...SOUTHWEST MISSOURI...

CITY           SKY/WX    TMP DP  RH WIND       PRES   REMARKS
SPRINGFIELD    SUNNY     84  73  69 SW14      30.13F HX  90
JOPLIN         SUNNY     88  76  67 S10       30.11S HX  99
BRANSON        MOSUNNY   86  72  62 S7        30.17S HX  92

$$
MOZ032>034-039>042-045>050-055>058-069>072-211700-
...CENTRAL MISSOURI...

CITY           SKY/WX    TMP DP  RH WIND       PRES   REMARKS
COLUMBIA       SUNNY     87  76  69 W10       30.10S HX  97
JEFFERSON CITY SUNNY     86  76  71 W7        30.09S HAZE    HX  96
ROLLA          SUNNY     86  76  71 SW8       30.14S HX  96
SEDALIA        CLOUDY    86  77  74 SW10      30.10R HX  97
WHITEMAN AFB   PTSUNNY   81  81  99 W8        30.08R HX  92
WARRENSBURG    TSTM      77  72  83 W3        30.09R
OSAGE BEACH    SUNNY     88  75  65 SW8       30.11S HX  97

$$
MOZ051-052-059>065-211700-
...EAST CENTRAL MISSOURI...

CITY           SKY/WX    TMP DP  RH WIND       PRES   REMARKS
ST LOUIS INTL  PTSUNNY   90  76  63 SW7       30.10S HX 101
SPIRIT OF STL  SUNNY     89  77  67 W8        30.08S HX 101
ST CHARLES     SUNNY     88  75  65 W5        30.08S HX  97

$$
MOZ072>076-082>087-097>100-106>115-211700-
...SOUTH CENTRAL AND SOUTHEAST MISSOURI...

CITY           SKY/WX    TMP DP  RH WIND       PRES   REMARKS
CAPE GIRARDEAU SUNNY     87  76  69 SW3       30.12F HX  97
FARMINGTON     SUNNY     88  77  69 VRB3      30.14F HX 100
POPLAR BLUFF   SUNNY     86  78  77 VRB3      30.13S HX  98
WEST PLAINS    SUNNY     87  73  62 W8        30.17F HX  94

$$



USA.gov is the U.S. government's official web portal to all federal, state and local government web resources and services.